Tracking 18850 objects as of 22-Nov-2017
HD Live streaming from Space Station
objects crossing your sky now

COSMOS 1880

Track COSMOS 1880 now!
10-day predictions
COSMOS 1880 is classified as:


NORAD ID: 18339
Int'l Code: 1987-074F
Perigee: 1,399.3 km
Apogee: 1,416.0 km
Inclination: 82.6 °
Period: 113.8 minutes
Semi major axis: 7778 km
RCS: 1.0638 m2 (large)
Launch date: September 7, 1987
Source: Commonwealth of Independent States (former USSR) (CIS)
Launch site: PLESETSK MISSILE AND SPACE COMPLEX (PKMTR)
aabbcc
Your satellite tracking list
Your tracking list is empty




NASA's NSSDC Master Catalog

Two Line Element Set (TLE):
1 18339U 87074F   17324.95619064 +.00000001 +00000-0 -50542-4 0  9999
2 18339 082.5588 116.4347 0010774 103.5362 012.4447 12.65458378395027
Source of the keplerian elements: AFSPC